TimeEDT,TemperatureF,Dew PointF,Humidity,Sea Level PressureIn,VisibilityMPH,Wind Direction,Wind SpeedMPH,Gust SpeedMPH,PrecipitationIn,Events,Conditions,WindDirDegrees,DateUTC
12:54 AM,66.0,61.0,84,29.95,10.0,Calm,Calm,-,N/A,,Clear,0,2013-06-01 04:54:00
1:54 AM,64.9,61.0,87,29.95,10.0,Calm,Calm,-,N/A,,Clear,0,2013-06-01 05:54:00
2:54 AM,64.0,60.1,87,29.94,10.0,Calm,Calm,-,N/A,,Clear,0,2013-06-01 06:54:00
3:54 AM,64.9,61.0,87,29.91,10.0,ESE,3.5,-,N/A,,Clear,120,2013-06-01 07:54:00
4:54 AM,62.1,59.0,90,29.93,10.0,Calm,Calm,-,N/A,,Clear,0,2013-06-01 08:54:00
5:54 AM,62.1,60.1,93,29.92,4.0,Calm,Calm,-,N/A,,Clear,0,2013-06-01 09:54:00
6:54 AM,68.0,63.0,84,29.93,10.0,Calm,Calm,-,N/A,,Clear,0,2013-06-01 10:54:00
7:54 AM,73.0,64.0,73,29.93,10.0,Variable,3.5,-,N/A,,Clear,0,2013-06-01 11:54:00
8:54 AM,75.9,64.9,69,29.92,10.0,Variable,3.5,-,N/A,,Clear,0,2013-06-01 12:54:00
9:54 AM,77.0,64.9,66,29.91,10.0,SW,5.8,-,N/A,,Overcast,220,2013-06-01 13:54:00
10:54 AM,79.0,66.0,64,29.90,10.0,SSW,9.2,-,N/A,,Mostly Cloudy,200,2013-06-01 14:54:00
11:54 AM,80.1,66.0,62,29.89,10.0,South,9.2,-,N/A,,Clear,190,2013-06-01 15:54:00
12:54 PM,84.0,66.9,56,29.86,10.0,South,10.4,19.6,N/A,,Clear,180,2013-06-01 16:54:00
1:54 PM,84.9,66.0,53,29.85,10.0,SW,15.0,24.2,N/A,,Clear,220,2013-06-01 17:54:00
2:54 PM,87.1,66.0,49,29.82,10.0,SSW,11.5,24.2,N/A,,Partly Cloudy,200,2013-06-01 18:54:00
3:54 PM,86.0,66.0,51,29.81,10.0,SSW,11.5,20.7,N/A,,Mostly Cloudy,210,2013-06-01 19:54:00
4:54 PM,87.1,66.9,51,29.79,10.0,SSW,10.4,-,N/A,,Mostly Cloudy,200,2013-06-01 20:54:00
5:54 PM,87.1,66.9,51,29.78,10.0,SSW,9.2,-,N/A,,Clear,200,2013-06-01 21:54:00
6:54 PM,84.9,66.0,53,29.77,10.0,SSW,11.5,-,N/A,,Clear,200,2013-06-01 22:54:00
7:54 PM,73.0,64.9,76,29.84,10.0,WNW,18.4,-,0.00,,Overcast,300,2013-06-01 23:54:00
8:54 PM,69.1,64.9,87,29.81,10.0,West,4.6,-,0.01,Rain,Light Rain,280,2013-06-02 00:54:00
9:54 PM,69.1,64.9,87,29.82,10.0,SSW,4.6,-,0.00,,Mostly Cloudy,210,2013-06-02 01:54:00
10:54 PM,68.0,64.9,90,29.82,10.0,Calm,Calm,-,N/A,,Mostly Cloudy,0,2013-06-02 02:54:00
11:54 PM,68.0,64.9,90,29.81,10.0,ESE,3.5,-,N/A,,Clear,120,2013-06-02 03:54:00